• In Belarus
  • List of Countries
  • For 7 days
  • Water Temperature
  • Satellite Maps
  • Weather Map
  • Weather Widgets
  • user-avatar
    Login

    Hourly Weather Sevan

    Today, 22 April, Sunday

    Time Temperature Precipitation Wind Pressure Humidity
    00:00 +4°C° 0 mm 1 mps 637 mmHg 79%
    01:00 +4°C° 0 mm 1 mps 637 mmHg 79%
    02:00 +3°C° 0 mm 1 mps 637 mmHg 80%
    03:00 +4°C° 0 mm 1 mps 637 mmHg 77%
    04:00 +4°C° 0 mm 1 mps 637 mmHg 76%
    05:00 +4°C° 0 mm 1 mps 637 mmHg 75%
    06:00 +4°C° 0 mm 1 mps 637 mmHg 74%
    07:00 +6°C° 0 mm 1 mps 637 mmHg 68%
    08:00 +7°C° 0 mm 1 mps 638 mmHg 61%
    09:00 +8°C° 0 mm 1 mps 638 mmHg 54%
    10:00 +10°C° 0 mm 1 mps 638 mmHg 51%
    11:00 +11°C° 0 mm 1 mps 638 mmHg 48%
    12:00 +12°C° 0 mm 2 mps 638 mmHg 45%
    13:00 +12°C° 0 mm 2 mps 637 mmHg 44%
    14:00 +12°C° 0 mm 2 mps 637 mmHg 44%
    15:00 +13°C° 0 mm 2 mps 637 mmHg 43%
    16:00 +12°C° 0 mm 1 mps 637 mmHg 46%
    17:00 +12°C° 0 mm 1 mps 637 mmHg 48%
    18:00 +11°C° 0 mm 1 mps 636 mmHg 51%
    19:00 +10°C° 0 mm 1 mps 636 mmHg 57%
    20:00 +9°C° 0 mm 1 mps 636 mmHg 63%
    21:00 +7°C° 0 mm 1 mps 636 mmHg 69%
    22:00 +7°C° 0 mm 1 mps 636 mmHg 71%
    23:00 +7°C° 0 mm 1 mps 637 mmHg 74%

    Tomorrow, 23 April, Monday

    Time Temperature Precipitation Wind Pressure Humidity
    00:00 +6°C° 0 mm 1 mps 637 mmHg 76%
    01:00 +6°C° 0 mm 1 mps 636 mmHg 77%
    02:00 +6°C° 0 mm 1 mps 636 mmHg 77%
    03:00 +5°C° 0 mm 1 mps 636 mmHg 78%
    04:00 +6°C° 0 mm 1 mps 637 mmHg 76%
    05:00 +6°C° 0 mm 1 mps 637 mmHg 75%
    06:00 +6°C° 0 mm 1 mps 637 mmHg 73%
    07:00 +7°C° 0 mm 2 mps 637 mmHg 64%
    08:00 +8°C° 0 mm 2 mps 637 mmHg 56%
    09:00 +10°C° 0 mm 2 mps 637 mmHg 47%
    10:00 +11°C° 0 mm 3 mps 637 mmHg 44%
    11:00 +12°C° 0 mm 3 mps 638 mmHg 41%
    12:00 +13°C° 0 mm 3 mps 638 mmHg 38%
    13:00 +14°C° 0 mm 3 mps 638 mmHg 37%
    14:00 +14°C° 0 mm 3 mps 638 mmHg 37%
    15:00 +15°C° 0 mm 2 mps 637 mmHg 36%
    16:00 +15°C° 0 mm 2 mps 637 mmHg 40%
    17:00 +14°C° 0 mm 2 mps 637 mmHg 43%
    18:00 +13°C° 0 mm 2 mps 637 mmHg 46%
    19:00 +12°C° 0 mm 2 mps 638 mmHg 51%
    20:00 +9°C° 0 mm 2 mps 638 mmHg 55%
    21:00 +8°C° 0 mm 2 mps 638 mmHg 60%
    22:00 +7°C° 0 mm 2 mps 638 mmHg 61%
    23:00 +8°C° 0 mm 1 mps 638 mmHg 61%

    Day after tomorrow, 24 April, Tuesday

    Time Temperature Precipitation Wind Pressure Humidity
    00:00 +7°C° 0 mm 1 mps 638 mmHg 62%
    01:00 +7°C° 0 mm 1 mps 638 mmHg 62%
    02:00 +6°C° 0 mm 1 mps 638 mmHg 61%
    03:00 +6°C° 0 mm 1 mps 638 mmHg 60%
    04:00 +6°C° 0 mm 1 mps 639 mmHg 59%
    05:00 +6°C° 0 mm 1 mps 639 mmHg 57%
    06:00 +7°C° 0 mm 1 mps 640 mmHg 56%
    07:00 +8°C° 0 mm 1 mps 640 mmHg 49%
    08:00 +10°C° 0 mm 1 mps 641 mmHg 43%
    09:00 +12°C° 0 mm 2 mps 641 mmHg 36%
    10:00 +13°C° 0 mm 2 mps 641 mmHg 35%
    11:00 +14°C° 0 mm 2 mps 642 mmHg 33%
    12:00 +14°C° 0 mm 3 mps 642 mmHg 32%
    13:00 +16°C° 0 mm 3 mps 642 mmHg 32%
    14:00 +16°C° 0 mm 3 mps 642 mmHg 32%
    15:00 +17°C° 0 mm 3 mps 642 mmHg 32%
    16:00 +16°C° 0 mm 3 mps 642 mmHg 36%
    17:00 +15°C° 0 mm 2 mps 641 mmHg 40%
    18:00 +14°C° 0 mm 2 mps 641 mmHg 44%
    19:00 +13°C° 0 mm 2 mps 641 mmHg 47%
    20:00 +12°C° 0 mm 2 mps 641 mmHg 51%
    21:00 +10°C° 0 mm 1 mps 642 mmHg 55%
    22:00 +10°C° 0 mm 1 mps 642 mmHg 56%
    23:00 +9°C° 0 mm 1 mps 642 mmHg 58%

    25 April, Wednesday

    Time Temperature Precipitation Wind Pressure Humidity
    00:00 +9°C° 0 mm 1 mps 642 mmHg 60%
    01:00 +9°C° 0 mm 1 mps 642 mmHg 58%
    02:00 +8°C° 0 mm 1 mps 642 mmHg 57%
    03:00 +8°C° 0 mm 1 mps 642 mmHg 56%
    04:00 +8°C° 0 mm 1 mps 642 mmHg 54%
    05:00 +8°C° 0 mm 1 mps 642 mmHg 52%
    06:00 +9°C° 0 mm 1 mps 642 mmHg 50%
    07:00 +10°C° 0 mm 2 mps 642 mmHg 47%
    08:00 +13°C° 0 mm 2 mps 643 mmHg 43%
    09:00 +15°C° 0 mm 2 mps 643 mmHg 40%
    10:00 +16°C° 0 mm 3 mps 643 mmHg 38%
    11:00 +17°C° 0 mm 3 mps 643 mmHg 37%
    12:00 +18°C° 0 mm 3 mps 643 mmHg 35%
    13:00 +18°C° 0 mm 3 mps 643 mmHg 35%
    14:00 +19°C° 0 mm 3 mps 643 mmHg 35%
    15:00 +19°C° 0 mm 3 mps 642 mmHg 35%
    16:00 +18°C° 0.2 mm 3 mps 642 mmHg 40%
    17:00 +17°C° 0.2 mm 2 mps 642 mmHg 45%
    18:00 +16°C° 0.2 mm 2 mps 642 mmHg 50%
    19:00 +15°C° 0.1 mm 2 mps 642 mmHg 55%
    20:00 +13°C° 0.1 mm 2 mps 642 mmHg 60%
    21:00 +12°C° 0.1 mm 2 mps 642 mmHg 65%
    22:00 +10°C° 0 mm 2 mps 642 mmHg 67%
    23:00 +10°C° 0 mm 2 mps 642 mmHg 69%

    26 April, Thursday

    Time Temperature Precipitation Wind Pressure Humidity
    00:00 +10°C° 0 mm 2 mps 642 mmHg 71%
    01:00 +10°C° 0 mm 1 mps 642 mmHg 71%
    02:00 +10°C° 0 mm 1 mps 642 mmHg 72%
    03:00 +9°C° 0 mm 1 mps 642 mmHg 73%
    04:00 +10°C° 0 mm 1 mps 642 mmHg 72%
    05:00 +10°C° 0 mm 1 mps 642 mmHg 72%
    06:00 +10°C° 0 mm 1 mps 642 mmHg 72%
    07:00 +12°C° 0 mm 1 mps 643 mmHg 64%
    08:00 +14°C° 0 mm 1 mps 644 mmHg 56%
    09:00 +16°C° 0 mm 1 mps 644 mmHg 49%
    10:00 +18°C° 0 mm 1 mps 644 mmHg 46%
    11:00 +18°C° 0 mm 2 mps 644 mmHg 43%
    12:00 +19°C° 0 mm 2 mps 644 mmHg 40%
    13:00 +20°C° 0 mm 2 mps 644 mmHg 39%
    14:00 +20°C° 0 mm 2 mps 644 mmHg 38%
    15:00 +20°C° 0 mm 2 mps 644 mmHg 38%
    16:00 +19°C° 0.1 mm 2 mps 644 mmHg 42%
    17:00 +20°C° 0.1 mm 1 mps 644 mmHg 46%
    18:00 +19°C° 0.1 mm 1 mps 643 mmHg 49%
    19:00 +16°C° 0.2 mm 1 mps 644 mmHg 56%
    20:00 +15°C° 0.2 mm 2 mps 644 mmHg 62%
    21:00 +13°C° 0.2 mm 2 mps 644 mmHg 68%
    22:00 +13°C° 0 mm 2 mps 644 mmHg 71%
    23:00 +12°C° 0 mm 2 mps 644 mmHg 75%

    27 April, Friday

    Time Temperature Precipitation Wind Pressure Humidity
    00:00 +12°C° 0 mm 2 mps 644 mmHg 79%
    01:00 +10°C° 0 mm 2 mps 643 mmHg 79%
    02:00 +10°C° 0 mm 2 mps 643 mmHg 79%
    03:00 +10°C° 0 mm 2 mps 643 mmHg 80%
    04:00 +10°C° 0 mm 2 mps 643 mmHg 78%
    05:00 +10°C° 0 mm 2 mps 644 mmHg 77%
    06:00 +10°C° 0 mm 2 mps 644 mmHg 75%
    07:00 +13°C° 0 mm 2 mps 644 mmHg 66%
    08:00 +15°C° 0 mm 2 mps 645 mmHg 57%
    09:00 +17°C° 0 mm 2 mps 645 mmHg 48%
    10:00 +19°C° 0 mm 2 mps 645 mmHg 44%
    11:00 +20°C° 0 mm 2 mps 644 mmHg 41%
    12:00 +21°C° 0 mm 2 mps 644 mmHg 37%
    13:00 +21°C° 0.1 mm 3 mps 644 mmHg 38%
    14:00 +21°C° 0.1 mm 3 mps 643 mmHg 38%
    15:00 +22°C° 0.1 mm 3 mps 643 mmHg 39%
    16:00 +20°C° 0.7 mm 3 mps 643 mmHg 46%
    17:00 +19°C° 0.7 mm 2 mps 643 mmHg 53%
    18:00 +17°C° 0.7 mm 2 mps 643 mmHg 60%
    19:00 +17°C° 0.4 mm 2 mps 643 mmHg 64%
    20:00 +16°C° 0.4 mm 2 mps 643 mmHg 68%
    21:00 +15°C° 0.4 mm 2 mps 643 mmHg 72%
    22:00 +14°C° 0.1 mm 2 mps 643 mmHg 74%
    23:00 +14°C° 0.1 mm 2 mps 642 mmHg 76%
    Show more